Regional Weather Roundup
Issued by NWS

Home | Current Version | Previous Version | Graphics & Text | Print | Product List | Glossary On
Versions: 1 2 3 4 5 6 7 8 9 10 11 12 13 14 15 16 17 18 19 20 21 22 23 24 25 26 27 28 29 30 31 32 33 34 35 36 37 38 39 40 41 42 43 44 45 46 47 48 49 50
000
ASUS44 KMEG 230410
RWRTN
TENNESSEE HOURLY STATE WEATHER ROUNDUP
NATIONAL WEATHER SERVICE MEMPHIS TN
1100 PM CDT FRI AUG 22 2014

TNZ002-004-019-021-049-052-054-088>092-230500-
WEST TENNESSEE

CITY           SKY/WX    TMP DP  RH WIND       PRES   REMARKS
MEMPHIS INTL   CLEAR     83  73  72 S5        30.01R
NWS MEMPHIS      N/A     83 N/A N/A MISG        N/A
JACKSON        CLEAR     78  74  87 S5        30.01S
DYERSBURG      CLEAR     82  68  61 SW5       30.00S
UNION CITY     CLEAR     79  75  89 CALM      29.99S
PARIS          CLEAR     73  70  88 CALM      30.02S
HUNTINGDON     CLEAR     75  74  97 CALM      30.01S
LEXINGTON      CLEAR     75  73  94 CALM      30.02S
SAVANNAH       CLEAR     75  75 100 CALM      30.04R
$$

TNZ008-025-027-028-033-062-065-066-230500-
NORTH MIDDLE TENNESSEE

CITY           SKY/WX    TMP DP  RH WIND       PRES   REMARKS
NASHVILLE      CLEAR     80  74  81 CALM      30.03S
DICKSON        CLEAR     75  73  94 CALM      30.04S
PORTLAND       CLOUDY    79  72  78 CALM      30.03R
CLARKSVILLE    PTCLDY    78  74  87 S3        30.01S
LEBANON        MOCLDY    77  73  87 CALM      30.02S
SMYRNA         CLEAR     78  73  84 CALM      30.04R
MURFREESBORO   CLEAR     80  72  76 CALM      30.03S
COOKEVILLE     CLEAR     75  73  94 CALM      30.05F
LIVINGSTON     PTCLDY    76  71  84 SW3       30.07S
GALLATIN       PTCLDY    77  75  93 CALM      30.04S
CROSSVILLE     CLEAR     73  70  90 CALM      30.12R FOG
$$

TNZ061-075-076-078-094-096-097-230500-
SOUTH MIDDLE TENNESSEE

CITY           SKY/WX    TMP DP  RH WIND       PRES   REMARKS
LEWISBURG      CLEAR     76  72  87 CALM      30.04S
FAYETTEVILLE   CLEAR     75  68  78 CALM      30.06S
TULLAHOMA      CLEAR     73  70  88 CALM      30.07F
MCMINNVILLE    CLOUDY    73  73 100 CALM      30.06S VSB 1/4
COLUMBIA       CLEAR     75  75 100 CALM      30.03S
SHELBYVILLE    CLEAR     75  73  94 CALM      30.05F
$$

TNZ017-018-042-046-047-230500-
NORTHEAST TENNESSEE

CITY           SKY/WX    TMP DP  RH WIND       PRES   REMARKS
TRI CITIES     CLOUDY    74  70  87 N7        30.09R THUNDER
ELIZABETHTON   MOCLDY    70  70 100 CALM      30.08F
$$

TNZ012-013-036-069-073-074-230500-
CENTRAL EAST TENNESSEE

CITY           SKY/WX    TMP DP  RH WIND       PRES   REMARKS
KNOXVILLE      MOCLDY    79  71  76 CALM      30.04S
OAK RIDGE      PTCLDY    77  73  87 CALM      30.06S
GATLINBURG     PTCLDY    75  70  83 CALM      30.04S
MORRISTOWN     CLEAR     75  72  88 SW3       30.07S
$$

TNZ083-085-099-230500-
SOUTHEAST TENNESSEE

CITY           SKY/WX    TMP DP  RH WIND       PRES   REMARKS
CHATTANOOGA    PTCLDY    81  73  76 CALM      30.04S
$$

SKY/WX REPORTED AS FAIR MEANS FEW OR NO CLOUDS BELOW
12 THOUSAND FEET.



USA.gov is the U.S. government's official web portal to all federal, state and local government web resources and services.